Greenville, ME

2:45 PM EST on November 20, 2019 (GMT -0500)
Greenville

Weather History for KGNR - September, 2019

Change the Weather History Date:

Saturday, September 14, 2019

  Actual Average (WUND) Record (WUND)
Temperature  
Mean Temperature 50 °F -  
Max Temperature 55 °F - - (-1)
Min Temperature 44 °F - - (-1)
Degree Days  
Heating Degree Days 16    
Moisture  
Dew Point 47 °F    
Average Humidity 88    
Maximum Humidity 97    
Minimum Humidity 71    
Precipitation  
Precipitation 0.02 in - - ()
Sea Level Pressure  
Sea Level Pressure 30.21 in    
Wind  
Wind Speed 6 mph ()    
Max Wind Speed 12 mph    
Max Gust Speed 21 mph    
Averages and records for this station are not official NWS values.
T = Trace of Precipitation, MM = Missing Value Source: Averaged Metar Reports

Daily Weather History Graph

Daily Weather History Graph

Search for Another Location

Airport or City:

Astronomy

Sep. 14, 2019 Rise Set
Actual Time 6:15 AM EDT 6:51 PM EDT
Civil Twilight 5:45 AM EDT 7:21 PM EDT
Nautical Twilight 5:10 AM EDT 7:56 PM EDT
Astronomical Twilight 4:33 AM EDT 8:33 PM EDT
Moon 7:31 PM EDT (9/14) 6:23 AM EDT (9/14)
Length of Visible Light 13h 36m
Length of Day
12h 36m
Full, 100% of the Moon is Illuminated
Sep 14
Full
Sep 21
Last Quarter
Sep 28
New
Oct 5
First Quarter
Oct 13
Full

Hourly Weather History & Observations

Time (EDT) Temp. Windchill Dew Point Humidity Pressure Visibility Wind Dir Wind Speed Gust Speed Precip Events Conditions
12:56 AM 45.0 °F 43.5 °F 37.9 °F 76% 30.40 in - Variable 3.5 mph - N/A   Unknown
1:56 AM 46.0 °F 43.1 °F 37.0 °F 71% 30.39 in - Variable 5.8 mph - N/A   Unknown
2:56 AM 44.1 °F 41.5 °F 37.9 °F 79% 30.35 in - SSE 4.6 mph - N/A   Unknown
3:56 AM 45.0 °F 40.6 °F 37.9 °F 76% 30.33 in - SSE 8.1 mph - N/A   Unknown
4:56 AM 44.1 °F 40.1 °F 39.9 °F 85% 30.31 in - SSE 6.9 mph - N/A   Unknown
5:56 AM 44.1 °F 39.0 °F 41.0 °F 89% 30.30 in - SSE 9.2 mph - N/A   Unknown
6:56 AM 45.0 °F - 42.1 °F 90% 30.28 in - North - - N/A   Unknown
7:56 AM 48.9 °F - 43.0 °F 80% 30.27 in - South 11.5 mph 20.7 mph N/A   Unknown
8:56 AM 46.9 °F - 43.0 °F 86% 30.26 in - SSE 8.1 mph - N/A   Unknown
10:56 AM 50.0 °F - 46.0 °F 86% 30.23 in - South 9.2 mph 20.7 mph 0.01 in   Unknown
11:56 AM 50.0 °F - 46.9 °F 89% 30.22 in - North - - N/A   Unknown
12:56 PM - - - N/A% - - North - - N/A   Unknown
1:00 PM - - - N/A% - - North - - N/A   Unknown
1:56 PM 52.0 °F - 50.0 °F 93% 30.17 in - Variable 4.6 mph - 0.01 in   Unknown
3:56 PM 54.0 °F - 52.0 °F 93% 30.13 in - South 9.2 mph - N/A   Unknown
4:56 PM 55.0 °F - 53.1 °F 93% 30.12 in - Variable 5.8 mph - N/A   Unknown
5:56 PM 55.0 °F - 53.1 °F 93% 30.12 in - SSW 6.9 mph - N/A   Unknown
6:56 PM 55.0 °F - 53.1 °F 93% 30.12 in - Variable 6.9 mph - N/A   Unknown
7:56 PM 55.9 °F - 54.0 °F 93% 30.10 in - South 9.2 mph 17.3 mph N/A   Unknown
8:56 PM 55.9 °F - 54.0 °F 93% 30.09 in - South 8.1 mph - N/A   Unknown
9:56 PM 55.9 °F - 55.0 °F 97% 30.09 in - SSW 6.9 mph - N/A   Unknown
10:56 PM 55.9 °F - 55.0 °F 97% 30.07 in - SSW 8.1 mph - N/A   Unknown
11:56 PM 55.9 °F - 55.0 °F 97% 30.05 in - SSW 6.9 mph - N/A   Unknown